Location: Milton Keynes
(52.0316°N, 0.7531°W)
Time: 06:35:58
(UTC+01:00)

Envisat - Pass Details

Date: 30 January 2019
Orbit: 764 x 766 km, 98.1° (Epoch: 23 October)

Event Time Altitude Azimuth Distance (km) Brightness Sun altitude
Rises 20:11:52 0° 215° (SW) 3,225 6.5 -31.4°
Reaches altitude 10° 20:15:08 10° 238° (WSW) 2,305 6.0 -31.9°
Maximum altitude 20:18:06 16° 274° (W) 1,953 5.8 -32.3°
Drops below altitude 10° 20:21:05 10° 310° (NW) 2,314 6.2 -32.8°
Sets 20:24:24 0° 333° (NNW) 3,247 6.8 -33.3°
